This is the latest recevied weather packets stored in our database for station/object IZ1UQG-N2. If no packets are shown the sender has not sent any weather packets the latest 10 day(s).
| Time | Temp. | Humidity | Pressure | Rain* | Wind** | Luminosity | Snow |
|---|---|---|---|---|---|---|---|
| 1788008866 | 29.44° C | 42% | 1010.9 hPa | 51.05 mm | - | 679 W/m² | - |
| 1788008806 | 28.89° C | 42% | 1010.9 hPa | 51.05 mm | - | 679 W/m² | - |
| 1788008746 | 29.44° C | 41% | 1011 hPa | 51.05 mm | - | 659 W/m² | - |
| 1788008686 | 29.44° C | 42% | 1011 hPa | 51.05 mm | - | 612 W/m² | - |
| 1788008625 | 29.44° C | 42% | 1011 hPa | 51.05 mm | - | 686 W/m² | - |
| 1788008566 | 29.44° C | 42% | 1011.1 hPa | 51.05 mm | - | 675 W/m² | - |
| 1788008505 | 28.89° C | 42% | 1011.1 hPa | 51.05 mm | - | 664 W/m² | - |
| 1788008445 | 28.89° C | 42% | 1011.1 hPa | 51.05 mm | - | 631 W/m² | - |
| 1788008384 | 28.89° C | 42% | 1011 hPa | 51.05 mm | - | 638 W/m² | - |
| 1788008326 | 28.89° C | 42% | 1011.1 hPa | 51.05 mm | - | 670 W/m² | - |
| 1788008266 | 28.89° C | 42% | 1011.1 hPa | 51.05 mm | - | 642 W/m² | - |
| 1788008206 | 28.89° C | 42% | 1011 hPa | 51.05 mm | - | 705 W/m² | - |
| 1788008145 | 28.89° C | 40% | 1011 hPa | 51.05 mm | - | 715 W/m² | - |
| 1788008086 | 28.89° C | 40% | 1011.2 hPa | 51.05 mm | - | 689 W/m² | - |
| 1788008026 | 28.89° C | 40% | 1011 hPa | 51.05 mm | - | 693 W/m² | - |
| 1788007965 | 28.89° C | 40% | 1011.1 hPa | 51.05 mm | - | 693 W/m² | - |
| 1788007905 | 28.89° C | 40% | 1011.1 hPa | 51.05 mm | - | 693 W/m² | - |
| 1788007845 | 28.89° C | 40% | 1011.1 hPa | 51.05 mm | - | 693 W/m² | - |
| 1788007784 | 28.89° C | 40% | 1011.2 hPa | 51.05 mm | - | 693 W/m² | - |
| 1788007725 | 28.89° C | 40% | 1011.2 hPa | 51.05 mm | - | 703 W/m² | - |
| 1788007665 | 28.89° C | 41% | 1011.2 hPa | 51.05 mm | - | 677 W/m² | - |
| 1788007605 | 28.89° C | 41% | 1011.1 hPa | 51.05 mm | - | 708 W/m² | - |
| 1788007545 | 28.89° C | 43% | 1011.3 hPa | 51.05 mm | - | 705 W/m² | - |
| 1788007484 | 28.89° C | 43% | 1011.2 hPa | 25.65 mm | - | 747 W/m² | - |
| 1788007426 | 28.89° C | 45% | 1011.2 hPa | 25.65 mm | - | 747 W/m² | - |
* Rain latest hour (hover to see other rain measurements)
** Current wind speed in m/s (hover to see current wind gust speed)